This site uses a module created by best online poker sites.

BSB police log ending Nov. 21, 2013

"11/20/2013","00:51","213CR0027711","BUSINESS CHECK","BUSINESS CHECK","1370 HARRISON AVE","",""
"11/20/2013","01:23","213CR0027712","ATL","ATL","58 W BADGER LN","",""
"11/20/2013","01:33","213CR0027713","CITIZEN AID","CITIZEN AID","PARK ST AND MAIN ST","",""
"11/20/2013","02:18","213CR0027714","PROWLER","PROWLER","723 W GRANITE ST","",""
"11/20/2013","02:38","213CR0027715","T/S","T/S","EXCEL AND GRANITE","",""
"11/20/2013","04:03","213CR0027716","DISTURBANCE","DISTURBANCE","905 SILVER BOW HOMES","",""
"11/20/2013","04:19","213CR0027717","ALARM - BURGLARY","ALARM - BURGLARY","************","",""
"11/20/2013","05:21","213CR0027719","ANIMAL COMPLAINT","ANIMAL COMPLAINT","1327 W GRANITE ST","",""
"11/20/2013","06:01","213CR0027720","UNKNOWN PROBLEM","UNKNOWN PROBLEM","2426 YALE AVE","",""
"11/20/2013","07:05","213CR0027721","DISTURBANCE","DISTURBANCE","1007 OREGON","",""
"11/20/2013","07:18","213CR0027722","SUSPICIOUS ACTIVITY","SUSPICIOUS ACTIVITY","FRONT AND HARRISON","",""
"11/20/2013","08:06","213CR0027723","ATL","ATL","GRAND AVE AND TEXAS AVE","",""
"11/20/2013","08:12","213CR0027724","T/S","T/S","JOHNS AND COBBAN","",""
"11/20/2013","08:55","213CR0027725","FIRE- GAS ODOR","FIRE- GAS ODOR","1323 MISSOURI","",""
"11/20/2013","09:00","213CR0027726","ASSAULT","ASSAULT","************","",""
"11/20/2013","09:05","213CR0027727","MEDICAL - EMERGENCY","MEDICAL - EMERGENCY","2515 EDWARDS","",""
"11/20/2013","09:20","213CR0027728","DETENTION BUSINESS","DETENTION BUSINESS","************","",""
"11/20/2013","10:12","213CR0027729","HARASSMENT","HARASSMENT","501 W GRANITE","",""
"11/20/2013","10:17","213CR0027730","DISTURBANCE","DISTURBANCE","1007 OREGON","",""
"11/20/2013","10:46","213CR0027731","SUSPICIOUS ACTIVITY","SUSPICIOUS ACTIVITY","2110 HARVARD","",""
"11/20/2013","10:55","213CR0027732","ALARM - MEDICAL","ALARM - MEDICAL","************","",""
"11/20/2013","10:58","213CR0027733","HARASSMENT","HARASSMENT","406 SILVER BOW HOMES","",""
"11/20/2013","11:01","213CR0027734","HARASSMENT","HARASSMENT","1118 MARYLAND ST","",""
"11/20/2013","11:43","213CR0027735","T/S","T/S","600 BLK S MAIN ST","",""
"11/20/2013","12:09","213CR0027736","UNWANTED PERSON","UNWANTED PERSON","************","",""
"11/20/2013","12:15","213CR0027737","SUSPICIOUS ACTIVITY","SUSPICIOUS ACTIVITY","606 S UTAH","",""
"11/20/2013","12:24","213CR0027738","CIVIL PAPER SERVICE","CIVIL PAPER SERVICE","2104 ROBERTS","",""
"11/20/2013","12:25","213CR0027739","ASSIST OTHER AGENCY","ASSIST OTHER AGENCY","201 HOBSON AVE #49","",""
"11/20/2013","12:29","213CR0027740","MEDICAL - EMERGENCY","MEDICAL - EMERGENCY","3900 JUPITER #B108","",""
"11/20/2013","12:30","213CR0027741","CIVIL PAPER SERVICE","CIVIL PAPER SERVICE","2260 MISSOULA","",""
"11/20/2013","12:31","213CR0027742","T/S","T/S","HARRISON AVE AND ARGYLE ST","",""
"11/20/2013","12:57","213CR0027743","THEFT","THEFT","903 SILVER BOW HOMES","",""
"11/20/2013","13:33","213CR0027744","ASSAULT","ASSAULT","************","",""
"11/20/2013","14:15","213CR0027745","LOST OR STOLEN PROPERTY","LOST OR STOLEN PROPERTY","435 S CRYSTAL ST","",""
"11/20/2013","14:20","213CR0027746","BUSINESS CHECK","BUSINESS CHECK","1307 HARRISON AV","",""
"11/20/2013","14:30","213CR0027747","T/S","T/S","MOTOR VIEW // HARRISON AVE","",""
"11/20/2013","14:36","213CR0027748","T/S","T/S @ ELIZ WARREN // MT HIGHLAND DR","ELIZ WARREN // MT HIGHLAND DR","",""
"11/20/2013","14:48","213CR0027749","MEDICAL - EMERGENCY","MEDICAL - EMERGENCY","2805 MOULTON ST","",""
"11/20/2013","15:00","213CR0027750","T/S","T/S","MAIN ST // SECOND ST","",""
"11/20/2013","15:10","213CR0027751","MEDICAL - EMERGENCY","MEDICAL - EMERGENCY","9301 HWY 2","",""
"11/20/2013","15:12","213CR0027754","VANDALISM/CRIMINAL MISCHIEF","VANDALISM/CRIMINAL MISCHIEF","PLATINUM ST AND WYOMING ST","",""
"11/20/2013","15:13","213CR0027752","T/S","T/S","100 BLK N MAIN ST","",""
"11/20/2013","15:13","213CR0027753","T/S","T/S @ ","","",""
"11/20/2013","15:25","213CR0027755","ASSAULT","ASSAULT","************","",""
"11/20/2013","15:31","213CR0027756","VANDALISM/CRIMINAL MISCHIEF","VANDALISM/CRIMINAL MISCHIEF","1000 BLK N EXCELSIOR AVE","",""
"11/20/2013","15:48","213CR0027757","DISTURBANCE","DISTURBANCE","725 MARYLAND AVE","",""
"11/20/2013","15:58","213CR0027758","HIT AND RUN","HIT AND RUN","1945 PHILLIPS AVE","",""
"11/20/2013","16:02","213CR0027759","DISTURBANCE","PFMA - MINOR INJ/PHYSICAL CONT","201 HOBSON #40","ARREST(s) MADE",""
"11/20/2013","16:08","213CR0027760","CITIZEN AID","CITIZEN AID","1017 S UTAH","",""
"11/20/2013","16:12","213CR0027761","RESTRAINING ORDER VIOLATION","RESTRAINING ORDER VIOLATION","************","",""
"11/20/2013","16:40","213CR0027762","MEDICAL - EMERGENCY","MEDICAL - EMERGENCY","1532 ELM","",""
"11/20/2013","17:22","213CR0027763","THEFT","THEFT","1400 HARRISON AVE","",""
"11/20/2013","17:25","213CR0027764","SUSPICIOUS ACTIVITY","SUSPICIOUS ACTIVITY","1940 DEWEY BLVD","",""
"11/20/2013","17:36","213CR0027765","SUSPICIOUS ACTIVITY","POSSESSION OF DANGEROUS DRUGS","3755 HARRISON AVE","ARREST(s) MADE",""
"11/20/2013","17:49","213CR0027766","T/S","T/S","HARRISON AVE // MAJORS ST","",""
"11/20/2013","17:56","213CR0027767","MEDICAL - EMERGENCY","MEDICAL - EMERGENCY","3465 RIDGEWAY","",""
"11/20/2013","18:15","213CR0027768","THEFT","THEFT FROM MOTOR VEHICLE","3755 HARRISON AVE","ARREST(s) MADE",""
"11/20/2013","18:38","213CR0027769","MEDICAL - EMERGENCY","MEDICAL - EMERGENCY","1204 E SECOND ST","",""
"11/20/2013","18:56","213CR0027770","THEFT","THEFT","2051 HARRISON AVE","",""
"11/20/2013","19:04","213CR0027771","THEFT","THEFT, ALL OTHERS","1823 C ST","",""
"11/20/2013","19:32","213CR0027772","SUSPICIOUS ACTIVITY","SUSPICIOUS ACTIVITY","858 S MAIN","",""
"11/20/2013","19:54","213CR0027773","DISTURBANCE","DISTURBANCE","1000 GRIZZLY TRL","",""
"11/20/2013","20:06","213CR0027774","MEDICAL - EMERGENCY","MEDICAL - EMERGENCY","2690 COLUSA","",""
"11/20/2013","20:20","213CR0027775","ALARM - BURGLARY","ALARM - BURGLARY","************","",""
"11/20/2013","20:31","213CR0027776","WELFARE CHECK","WELFARE CHECK","4605 S WYOMING ST","",""
"11/20/2013","20:50","213CR0027777","DISTURBANCE","DISTURBANCE","3016 PAXSON AVE","",""
"11/20/2013","21:10","213CR0027778","HIT AND RUN","HIT AND RUN, UNATTENDED VEHICL","2039 S ARIZONA","",""
"11/20/2013","22:20","213CR0027779","TRAFFIC HAZARD","TRAFFIC HAZARD","OHIO AND E PARK ST","",""
"11/20/2013","22:27","213CR0027780","CITIZEN AID","CITIZEN AID","212 N CLARK","",""
"11/20/2013","23:08","213CR0027781","T/S","T/S","UTAH AVE AND ALUMINUM ST","",""
"11/20/2013","23:30","213CR0027782","SUICIDE ATTEMPT/THREAT","SUICIDE ATTEMPT/THREAT","************","",""
"11/21/2013","01:22","213CR0027783","T/S","POSSESS ALCOHOL OR INTOXICANT","FRONT AND MONTANA","ARREST(s) MADE",""
"11/21/2013","01:22","213CR0027784","T/S","T/S @ ","","",""
"11/21/2013","04:11","213CR0027785","T/S","T/S @ COBBAN ST AND UTAH AVE","COBBAN ST AND UTAH AVE","",""
"11/21/2013","07:04","213CR0027787","STOLEN VEHICLE","STOLEN VEHICLE","512 W GALENA ST","",""
"11/21/2013","07:34","213CR0027788","CIVIL PAPER SERVICE","CIVIL PAPER SERVICE","155 W GRANITE","",""
"11/21/2013","07:40","213CR0027789","UNKNOWN PROBLEM","UNKNOWN PROBLEM","534 W GALENA","",""

BSB police log ending Nov. 20, 2013

"11/19/2013","00:04","213CR0027639","BUSINESS CHECK","BUSINESS CHECK","3700 HARRISON AVE","",""
"11/19/2013","01:43","213CR0027640","T/S","T/S","1800 BLK LOCUST","",""
"11/19/2013","02:58","213CR0027641","T/S","T/S","2400 BLK MOULTON","",""
"11/19/2013","03:40","213CR0027642","SUSPICIOUS ACTIVITY","SUSPICIOUS ACTIVITY","350 SHIELDS AVE","",""
"11/19/2013","04:36","213CR0027643","MAN WITH A GUN","CRIMINAL ENDANGERMENT","1941 SAMPSON ST","ARREST(s) MADE",""
"11/19/2013","05:15","213CR0027644","T/S","T/S","PLATINUM ST AND UTAH AVE","",""
"11/19/2013","06:31","213CR0027645","ATL","ATL","24 E COPPER","",""
"11/19/2013","06:44","213CR0027646","DETENTION BUSINESS","DETENTION BUSINESS","************","",""
"11/19/2013","07:35","213CR0027647","ALARM - FIRE","ALARM - FIRE","1653 HARRISON","",""
"11/19/2013","08:02","213CR0027648","UNWANTED PERSON","UNWANTED PERSON","************","",""
"11/19/2013","09:09","213CR0027649","WANTED PERSON","WANTED PERSON","************","",""
"11/19/2013","09:11","213CR0027650","CIVIL PAPER SERVICE","CIVIL PAPER SERVICE","3218 EVANS","",""
"11/19/2013","09:16","213CR0027651","CIVIL PAPER SERVICE","CIVIL PAPER SERVICE","421 NORTH STREET","",""
"11/19/2013","09:20","213CR0027652","WANTED PERSON","PROBATION VIOLATION","2292 W DRIVE","",""
"11/19/2013","09:23","213CR0027653","T/S","T/S","3100 HARRISON AVE","",""
"11/19/2013","09:25","213CR0027654","CIVIL PAPER SERVICE","CIVIL PAPER SERVICE","204 NEVERSWEAT","",""
"11/19/2013","10:06","213CR0027655","HIT AND RUN","HIT AND RUN, PROPERTY DAMAGE","911 W MERCURY ST","",""
"11/19/2013","10:50","213CR0027656","T/S","T/S","700 BLK UTAH AVE","",""
"11/19/2013","11:06","213CR0027657","CIVIL PAPER SERVICE","CIVIL PAPER SERVICE","435 S CRYSTAL","",""
"11/19/2013","11:29","213CR0027658","BURGLARY","BURGLARY, NON-RESIDENCE","3135 BURLINGTON","",""
"11/19/2013","11:35","213CR0027659","T/S","T/S","OREGON AVE AND COBBAN ST","",""
"11/19/2013","11:38","213CR0027660","ACCIDENT","INTER. W/TRAFFIC WHILE BACKING","100 BLK N IDAHO","",""
"11/19/2013","11:42","213CR0027661","HIT AND RUN","HIT AND RUN","3901 HARRISON AVE","",""
"11/19/2013","12:19","213CR0027662","FRAUD","FRAUD","2471 MILES CROSSING","",""
"11/19/2013","12:38","213CR0027663","DETENTION BUSINESS","DETENTION BUSINESS","************","",""
"11/19/2013","12:45","213CR0027664","ASSIST OTHER AGENCY","ASSIST OTHER AGENCY","3130 ARGYLE","",""
"11/19/2013","12:52","213CR0027665","CIVIL PAPER SERVICE","CIVIL PAPER SERVICE","2221 WALNUT","",""
"11/19/2013","12:58","213CR0027666","CIVIL PAPER SERVICE","CIVIL PAPER SERVICE","1575 ELM","",""
"11/19/2013","13:00","213CR0027667","LOST OR STOLEN PROPERTY","LOST OR STOLEN PROPERTY","436 S MAIN APT 305","",""
"11/19/2013","13:11","213CR0027668","ATL","ATL","400 BLK S MAIN ST","",""
"11/19/2013","13:36","213CR0027669","ABANDONED VEHICLE","ABANDONED VEHICLE","916 W GALENA","",""
"11/19/2013","14:03","213CR0027670","T/S","SPEEDING","106 COUNTRY CLUB RD","",""
"11/19/2013","14:05","213CR0027671","INFORMATION ONLY","INFORMATION ONLY","BSB LEC","",""
"11/19/2013","14:10","213CR0027672","T/S","USE OF ELECTR. DEVICE W/OP MV","DAKOTA ST AND IRON ST","ARREST(s) MADE",""
"11/19/2013","14:14","213CR0027673","SUSPICIOUS ACTIVITY","SUSPICIOUS ACTIVITY","10 BLK W PARK ST","",""
"11/19/2013","14:26","213CR0027674","WELFARE CHECK","WELFARE CHECK","200 BLK W PLATINUM ST","",""
"11/19/2013","15:02","213CR0027675","T/S","T/S","700 BLK S MAIN ST","",""
"11/19/2013","15:09","213CR0027676","T/S","T/S","MAIN ST // SECOND ST","",""
"11/19/2013","15:11","213CR0027677","WELFARE CHECK","WELFARE CHECK","1124 LEWISHON ST","",""
"11/19/2013","15:21","213CR0027678","ASSAULT","ASSAULT, SIMPLE","1118 MARYLAND AVE","",""
"11/19/2013","15:23","213CR0027679","CIVIL STANDBY","CIVIL STANDBY","212 N CLARK ST","",""
"11/19/2013","16:00","213CR0027680","INTOXICATED PERSON","INTOXICATED PERSON","33 W PARK ST","",""
"11/19/2013","16:07","213CR0027681","ATL","ATL","BUTTE","",""
"11/19/2013","16:07","213CR0027682","THEFT","THEFT FROM MOTOR VEHICLE","1220 E FRONT ST","",""
"11/19/2013","16:19","213CR0027683","THEFT","THEFT FROM MOTOR VEHICLE","400 S CLARK ST","",""
"11/19/2013","16:22","213CR0027684","ASSAULT","ASSAULT","************","",""
"11/19/2013","16:26","213CR0027685","MEDICAL - EMERGENCY","MEDICAL - EMERGENCY","2519 YALE AVE","",""
"11/19/2013","16:39","213CR0027686","MEDICAL - EMERGENCY","MEDICAL - EMERGENCY","2825 FARRAGUT","",""
"11/19/2013","17:14","213CR0027687","ALARM - BURGLARY","ALARM - BURGLARY","************","",""
"11/19/2013","17:18","213CR0027688","ANIMAL COMPLAINT","ANIMAL COMPLAINT","3600 WILLOUGHBY AVE","",""
"11/19/2013","17:37","213CR0027689","SUSPICIOUS ACTIVITY","SUSPICIOUS ACTIVITY","521 COBBAN ST","",""
"11/19/2013","17:46","213CR0027690","ATL","ATL","VIRGINIA CITY MT","",""
"11/19/2013","17:48","213CR0027691","ANIMAL COMPLAINT-BITE","ANIMAL COMPLAINT-BITE","3703 HARRISON","",""
"11/19/2013","17:55","213CR0027692","THEFT","THEFT FROM MOTOR VEHICLE","2702 WALNUT","",""
"11/19/2013","18:02","213CR0027693","ASSIST OTHER AGENCY","ASSIST OTHER AGENCY","11800 FRONTAGE RD","",""
"11/19/2013","18:48","213CR0027694","ALARM - BURGLARY","ALARM - BURGLARY","************","",""
"11/19/2013","19:01","213CR0027695","HARASSMENT","HARASSMENT","907 S MAIN","",""
"11/19/2013","19:05","213CR0027696","THEFT","THEFT, SHOPLIFT","2307 HARRISON AVE","",""
"11/19/2013","20:19","213CR0027697","JUVENILE RUNAWAY","UNGOVERNABLE JUVENILE","1345 HOBSON","",""
"11/19/2013","20:24","213CR0027698","MEDICAL - EMERGENCY","MEDICAL - EMERGENCY","832 S MAIN","",""
"11/19/2013","20:27","213CR0027699","UNWANTED PERSON","UNWANTED PERSON","************","",""
"11/19/2013","20:46","213CR0027700","ASSIST OTHER AGENCY","ASSIST OTHER AGENCY","I90 MM241 E BND","",""
"11/19/2013","20:50","213CR0027701","FOUND PROPERTY","FOUND PROPERTY","************","",""
"11/19/2013","21:07","213CR0027702","SUSPICIOUS ACTIVITY","SUSPICIOUS ACTIVITY","633 W GALENA","",""
"11/19/2013","21:22","213CR0027703","UNWANTED PERSON","UNWANTED PERSON","************","",""
"11/19/2013","21:28","213CR0027704","T/S","DRIVE WHILE SUSP. OR REVOKED","900 BLOCK ARIZONA","ARREST(s) MADE",""
"11/19/2013","22:59","213CR0027706","T/S","T/S","ARIZONA AND THIRD ST","",""
"11/19/2013","22:59","213CR0027705","T/S","T/S @ GARDEN AVE AND SHIELDS ST","GARDEN AVE AND SHIELDS ST","",""
"11/19/2013","23:32","213CR0027707","TRAFFIC HAZARD","TRAFFIC HAZARD","THIRD ST AND WYOMING","",""
"11/19/2013","23:47","213CR0027708","T/S","T/S","1900 BLK OF DEWEY","",""
"11/19/2013","23:48","213CR0027709","ALARM - BURGLARY","ALARM - BURGLARY","************","",""
"11/19/2013","23:50","213CR0027710","VANDALISM/CRIMINAL MISCHIEF","VANDALISM/CRIMINAL MISCHIEF","WYOMING ST AND SECOND ST","",""
"11/20/2013","00:51","213CR0027711","BUSINESS CHECK","BUSINESS CHECK","1370 HARRISON AVE","",""
"11/20/2013","01:23","213CR0027712","ATL","ATL","58 W BADGER LN","",""
"11/20/2013","01:33","213CR0027713","CITIZEN AID","CITIZEN AID","PARK ST AND MAIN ST","",""
"11/20/2013","02:18","213CR0027714","PROWLER","PROWLER","723 W GRANITE ST","",""
"11/20/2013","02:38","213CR0027715","T/S","T/S","EXCEL AND GRANITE","",""
"11/20/2013","04:03","213CR0027716","DISTURBANCE","DISTURBANCE","905 SILVER BOW HOMES","",""
"11/20/2013","04:19","213CR0027717","ALARM - BURGLARY","ALARM - BURGLARY","************","",""
"11/20/2013","05:21","213CR0027719","ANIMAL COMPLAINT","ANIMAL COMPLAINT","1327 W GRANITE ST","",""
"11/20/2013","06:01","213CR0027720","UNKNOWN PROBLEM","UNKNOWN PROBLEM","2426 YALE AVE","",""
"11/20/2013","07:05","213CR0027721","DISTURBANCE","DISTURBANCE","1007 OREGON","",""
"11/20/2013","07:18","213CR0027722","SUSPICIOUS ACTIVITY","SUSPICIOUS ACTIVITY","FRONT AND HARRISON","",""

BSB police log ending Nov. 19, 2013

"11/18/2013","00:03","213CR0027556","BUSINESS CHECK","BUSINESS CHECK","531 S MONTANA ST","",""
"11/18/2013","00:27","213CR0027557","UNKNOWN PROBLEM","UNKNOWN PROBLEM","112 N MAIN ST","",""
"11/18/2013","01:11","213CR0027558","MEDICAL - EMERGENCY","MEDICAL - EMERGENCY","1333 S UTAH AVE","",""
"11/18/2013","05:10","213CR0027559","CIVIL STANDBY","CIVIL STANDBY","","",""
"11/18/2013","06:24","213CR0027560","SUSPICIOUS ACTIVITY","SUSPICIOUS ACTIVITY","122040 NISSLER RD","",""
"11/18/2013","06:27","213CR0027561","MEDICAL - EMERGENCY","MEDICAL - EMERGENCY","3136 SANDERS","",""
"11/18/2013","08:03","213CR0027562","T/S","T/S","HOLLAND ST AND MONTANA ST","",""
"11/18/2013","08:19","213CR0027563","T/S","T/S","COBBAN AND LOWELL","",""
"11/18/2013","08:28","213CR0027564","T/S","T/S","ALBANY AND BURLINGTON","",""
"11/18/2013","08:46","213CR0027565","STOLEN VEHICLE","MOTOR VEHICLE THEFT","2521PRINCETON","",""
"11/18/2013","08:46","213CR0027566","T/S","T/S @ 3500 BLK ELIZABETH WARREN","3500 BLK ELIZABETH WARREN","",""
"11/18/2013","08:50","213CR0027567","T/S","T/S @ CONTINENTAL AND ELIZABETH WARR","CONTINENTAL AND ELIZABETH WARR","",""
"11/18/2013","08:58","213CR0027568","T/S","T/S @ CONTINENTAL AND OLYMPIC WY","CONTINENTAL AND OLYMPIC WY","",""
"11/18/2013","09:03","213CR0027570","T/S","T/S","AMHERST ST AND DAHLGREN ST","",""
"11/18/2013","09:03","213CR0027569","T/S","T/S @ 5000 BLK CONTINENTAL DR","5000 BLK CONTINENTAL DR","",""
"11/18/2013","09:09","213CR0027571","HIT AND RUN","HIT AND RUN, UNATTENDED VEHICL","606 S UTAH","",""
"11/18/2013","09:14","213CR0027572","T/S","T/S @ CONTINENTAL DR AND OLYMPIC WY","CONTINENTAL DR AND OLYMPIC WY","",""
"11/18/2013","09:16","213CR0027573","ANIMAL COMPLAINT","ANIMAL COMPLAINT","I90 MM 215","",""
"11/18/2013","09:21","213CR0027574","HIT AND RUN","HIT AND RUN, UNATTENDED VEHICL","3001 HARRISON AVE","",""
"11/18/2013","09:32","213CR0027576","WELFARE CHECK","WELFARE CHECK","1515 OREGON AVE #502","",""
"11/18/2013","09:34","213CR0027575","T/S","T/S @ WHITEWAY AND ELIZABETH WARREN","WHITEWAY AND ELIZABETH WARREN","",""
"11/18/2013","09:54","213CR0027577","T/S","T/S @ CONTINENTAL AND OLYMPIC W","CONTINENTAL AND OLYMPIC W","",""
"11/18/2013","10:04","213CR0027578","MEDICAL - EMERGENCY","MEDICAL - EMERGENCY","1333 S UTAH","",""
"11/18/2013","10:09","213CR0027579","T/S","T/S","3100 BLK OF HARRISON","",""
"11/18/2013","10:10","213CR0027580","VANDALISM/CRIMINAL MISCHIEF","CRIMINAL MISCHIEF","32 E GRANITE","",""
"11/18/2013","10:19","213CR0027581","T/S","T/S","1000 BLK S MONTANA ST","",""
"11/18/2013","10:31","213CR0027582","INFORMATION ONLY","INFORMATION ONLY","","",""
"11/18/2013","10:35","213CR0027583","T/S","T/S","ELIZABETH WARREN AND HARRISON","",""
"11/18/2013","10:42","213CR0027584","T/S","T/S","MONTANA ST AND GOLD","",""
"11/18/2013","10:43","213CR0027585","T/S","T/S","3900 BLK HARRISON AVE","",""
"11/18/2013","10:44","213CR0027586","T/S","T/S","531 S MONTANA","",""
"11/18/2013","10:54","213CR0027587","ATL","ATL","3131 AMHERST","",""
"11/18/2013","10:55","213CR0027588","T/S","T/S @ PARK AND JACKSON","PARK AND JACKSON","",""
"11/18/2013","11:01","213CR0027589","THEFT","THEFT","4800 HARRISON AVE #23","",""
"11/18/2013","11:02","213CR0027590","CITIZEN AID","CITIZEN AID","512 W GALENA","",""
"11/18/2013","11:07","213CR0027591","T/S","T/S @ WASHINGTON AND PARK","WASHINGTON AND PARK","",""
"11/18/2013","11:22","213CR0027592","THEFT","THEFT","1122 IOWA","",""
"11/18/2013","11:24","213CR0027593","WELFARE CHECK","WELFARE CHECK","212 N CLARK","",""
"11/18/2013","11:36","213CR0027594","SUSPICIOUS ACTIVITY","SUSPICIOUS ACTIVITY","3131 AMHERST","",""
"11/18/2013","11:51","213CR0027595","T/S","T/S","HARRISON AVE AND A ST","",""
"11/18/2013","12:00","213CR0027598","WANTED PERSON","WANTED PERSON","************","",""
"11/18/2013","12:01","213CR0027597","T/S","T/S","10 BLK E PARK ST","",""
"11/18/2013","12:17","213CR0027599","VANDALISM/CRIMINAL MISCHIEF","VANDALISM/CRIMINAL MISCHIEF","122040 NISSLER ROAD","",""
"11/18/2013","12:38","213CR0027600","T/S","T/S","I15 NB EXIT 122","",""
"11/18/2013","12:48","213CR0027601","T/S","T/S","PLATINUM AND ARIZONA","",""
"11/18/2013","12:58","213CR0027602","T/S","T/S @ GEORGE ST AND MONTANA ST","GEORGE ST AND MONTANA ST","",""
"11/18/2013","13:05","213CR0027603","CIVIL PAPER SERVICE","CIVIL PAPER SERVICE","51 W GRANITE","",""
"11/18/2013","13:06","213CR0027604","ALL OTHER","ALL OTHER","305 S MONTANA ST","",""
"11/18/2013","13:11","213CR0027605","CIVIL PAPER SERVICE","CIVIL PAPER SERVICE","605 W GALENA","",""
"11/18/2013","13:29","213CR0027606","CIVIL PAPER SERVICE","CIVIL PAPER SERVICE","1204 E SECOND","",""
"11/18/2013","13:56","213CR0027607","THEFT","THEFT","","",""
"11/18/2013","14:09","213CR0027608","PARKING COMPLAINT","PARKING COMPLAINT","902 W ZARELDA","",""
"11/18/2013","14:17","213CR0027609","DRUGS","DRUGS","************","",""
"11/18/2013","14:43","213CR0027610","T/S","T/S","4800 BLK HARRISON AVE","",""
"11/18/2013","14:51","213CR0027611","T/S","T/S","BUSCH ST AND CLEVELAND ST","",""
"11/18/2013","15:04","213CR0027612","T/S","T/S @ MAIN ST // GOLD ST","MAIN ST // GOLD ST","",""
"11/18/2013","15:22","213CR0027613","DISTURBANCE","POSSESS DRUG PARAPHERNALIA","2518 PARROT ST","ARREST(s) MADE",""
"11/18/2013","16:01","213CR0027614","CIVIL PAPER SERVICE","CIVIL PAPER SERVICE","937 W COPPER","",""
"11/18/2013","16:06","213CR0027615","CIVIL PAPER SERVICE","CIVIL PAPER SERVICE","937 W COPPER ST","",""
"11/18/2013","16:11","213CR0027616","THEFT","THEFT","740 N MONTANA","",""
"11/18/2013","16:16","213CR0027617","INFORMATION ONLY","INFORMATION ONLY","","",""
"11/18/2013","16:21","213CR0027618","T/S","T/S @ GERMAN GULCH AREA","GERMAN GULCH AREA","",""
"11/18/2013","16:46","213CR0027619","VANDALISM/CRIMINAL MISCHIEF","CRIMINAL MISCHIEF","2728 GEORGE","",""
"11/18/2013","16:47","213CR0027620","BURGLARY","THEFT FROM BUILDINGS","2629 EDWARDS","",""
"11/18/2013","16:53","213CR0027621","WELFARE CHECK","WELFARE CHECK","68 W BROADWAY","",""
"11/18/2013","16:56","213CR0027622","DOMESTIC ABUSE","PFMA - REASONABLE APPREHENSION","100 ARMS LOOP RD","",""
"11/18/2013","17:00","213CR0027623","WELFARE CHECK","WELFARE CHECK","3409 PAXSON AV","",""
"11/18/2013","17:12","213CR0027624","THEFT","THEFT","2801 HARRISON AVE/ZIP TRIP","",""
"11/18/2013","17:23","213CR0027625","ANIMAL COMPLAINT","ANIMAL COMPLAINT","2511 PARROT","",""
"11/18/2013","18:16","213CR0027626","MEDICAL - EMERGENCY","MEDICAL - EMERGENCY","9301 HWY 2","",""
"11/18/2013","18:26","213CR0027627","ACCIDENT-MHP","ACCIDENT-MHP","I 90 MM 228 ON RAMP W BND","",""
"11/18/2013","19:28","213CR0027628","MEDICAL - EMERGENCY","MEDICAL - EMERGENCY","302 SILVER BOW HOMES","",""
"11/18/2013","19:34","213CR0027629","ASSAULT","ASSAULT","************","",""
"11/18/2013","20:49","213CR0027630","MEDICAL - EMERGENCY","MEDICAL - EMERGENCY","1204 E SECOND ST","",""
"11/18/2013","20:52","213CR0027631","T/S","T/S @ ","","",""
"11/18/2013","21:13","213CR0027632","HIT AND RUN","HIT AND RUN","3400 HILL AVE #604","",""
"11/18/2013","21:14","213CR0027633","T/S","DUI PER SE .08 OR GREATER","700 BLOCK OF S MAIN","ARREST(s) MADE",""
"11/18/2013","21:23","213CR0027634","SUICIDE ATTEMPT/THREAT","SUICIDE ATTEMPT/THREAT","************","",""
"11/18/2013","21:50","213CR0027635","SUSPICIOUS ACTIVITY","SUSPICIOUS ACTIVITY","520 S WASHINGTON #3","",""
"11/18/2013","23:16","213CR0027636","DISTURBANCE","DISTURBANCE","1701 SILVER BOW HOMES","",""
"11/18/2013","23:43","213CR0027637","BUSINESS CHECK","BUSINESS CHECK","2711 HARRISON AVE","",""
"11/18/2013","23:53","213CR0027638","T/S","DRIVE WHILE SUSP. OR REVOKED","1900 BLK DEWEY BLVD","ARREST(s) MADE",""
"11/19/2013","00:04","213CR0027639","BUSINESS CHECK","BUSINESS CHECK","3700 HARRISON AVE","",""
"11/19/2013","01:43","213CR0027640","T/S","T/S @ 1800 BLK LOCUST","1800 BLK LOCUST","",""
"11/19/2013","02:58","213CR0027641","T/S","T/S @ 2400 BLK MOULTON","2400 BLK MOULTON","",""
"11/19/2013","03:40","213CR0027642","SUSPICIOUS ACTIVITY","SUSPICIOUS ACTIVITY","350 SHIELDS AVE","",""
"11/19/2013","04:36","213CR0027643","MAN WITH A GUN","CRIMINAL ENDANGERMENT","1941 SAMPSON ST","ARREST(s) MADE",""
"11/19/2013","05:15","213CR0027644","T/S","T/S @ PLATINUM ST AND UTAH AVE","PLATINUM ST AND UTAH AVE","",""
"11/19/2013","06:31","213CR0027645","ATL","ATL","24 E COPPER","",""
"11/19/2013","06:44","213CR0027646","DETENTION BUSINESS","DETENTION BUSINESS","************","",""
"11/19/2013","07:35","213CR0027647","ALARM - FIRE","ALARM - FIRE","1653 HARRISON","",""

BSB police log ending Nov. 18, 2013

"11/15/2013","00:25","213CR0027345","UNWANTED PERSON","UNWANTED PERSON","************","",""
"11/15/2013","01:08","213CR0027346","T/S","T/S @ I15 MM 126 NB","I15 MM 126 NB","",""
"11/15/2013","01:46","213CR0027347","SUSPICIOUS ACTIVITY","SUSPICIOUS ACTIVITY","I15 MM 127 NB","",""
"11/15/2013","01:49","213CR0027348","MEDICAL - EMERGENCY","MEDICAL - EMERGENCY","3434 SANDERS","",""
"11/15/2013","03:08","213CR0027349","SUSPICIOUS ACTIVITY","SUSPICIOUS ACTIVITY","2900 HARRSION/BUTTE PLAZA INN","",""
"11/15/2013","03:10","213CR0027350","PROWLER","PROWLER","735 HORNET ST","",""
"11/15/2013","03:49","213CR0027351","SUSPICIOUS ACTIVITY","SUSPICIOUS ACTIVITY","FRONT AND HARRISON","",""
"11/15/2013","03:53","213CR0027352","ATL","ATL","2305 CONTINENTAL DR TOWN PUMP","",""
"11/15/2013","04:23","213CR0027353","ATL","ATL","3901 HARRISON AVE","",""
"11/15/2013","05:04","213CR0027354","SUSPICIOUS ACTIVITY","SUSPICIOUS ACTIVITY","PARK AND MAIN","",""
"11/15/2013","05:23","213CR0027355","FIRE - OTHER","FIRE - OTHER","I90 MM 231 EB","",""
"11/15/2013","06:46","213CR0027356","ACCIDENT - INJURY","ACCIDENT - INJURY","1028 W PORPHYRY","",""
"11/15/2013","07:09","213CR0027357","ALARM - BURGLARY","ALARM - BURGLARY","************","",""
"11/15/2013","07:16","213CR0027358","ALARM - BURGLARY","ALARM - BURGLARY","************","",""
"11/15/2013","08:46","213CR0027359","UNWANTED PERSON","UNWANTED PERSON","************","",""
"11/15/2013","08:53","213CR0027360","HIT AND RUN","HIT AND RUN, PROPERTY DAMAGE","2535 PHILLIPS ST","",""
"11/15/2013","08:55","213CR0027361","VANDALISM/CRIMINAL MISCHIEF","CRIMINAL MISCHIEF","100 N CLARK ST","",""
"11/15/2013","09:55","213CR0027362","TRAFFIC HAZARD","TRAFFIC HAZARD","ALASKA // BOARDMAN","",""
"11/15/2013","10:24","213CR0027363","THEFT","THEFT, ALL OTHERS","4034 ELIZABETH WARREN #107","",""
"11/15/2013","10:39","213CR0027364","ACCIDENT - INJURY","ACCIDENT - INJURY","ELIZABETH WARREN AND HARRISON","",""
"11/15/2013","10:48","213CR0027365","DETENTION BUSINESS","DETENTION BUSINESS","************","",""
"11/15/2013","11:09","213CR0027366","PARKING COMPLAINT","PARKING COMPLAINT","1340 W GRANITE ST","",""
"11/15/2013","11:19","213CR0027367","MEDICAL - EMERGENCY","MEDICAL - EMERGENCY","845 S WYOMING ST","",""
"11/15/2013","11:29","213CR0027368","THEFT","THEFT FROM MOTOR VEHICLE","ALUMINUM AND UTAH","",""
"11/15/2013","11:43","213CR0027369","ASSIST OTHER AGENCY","ASSIST OTHER AGENCY","","",""
"11/15/2013","12:07","213CR0027370","T/S","T/S","GEORGE ST AND MONROE","",""
"11/15/2013","12:17","213CR0027371","SUSPICIOUS ACTIVITY","SUSPICIOUS ACTIVITY","SILVER AND WYOMING","",""
"11/15/2013","12:19","213CR0027372","DISTURBANCE","DISTURBANCE","4800 HARRISON AVE #16","",""
"11/15/2013","12:52","213CR0027373","LED BUSINESS","LED BUSINESS","MELROSE","",""
"11/15/2013","12:59","213CR0027374","INFORMATION ONLY","INFORMATION ONLY","1800 BLK C ST","",""
"11/15/2013","13:08","213CR0027375","SUSPICIOUS ACTIVITY","SUSPICIOUS ACTIVITY","1500 ELM ST","",""
"11/15/2013","13:22","213CR0027376","DISTURBANCE","PFMA - MINOR INJ/PHYSICAL CONT","4800 S HARRISON AVE #16","ARREST(s) MADE",""
"11/15/2013","13:26","213CR0027377","ALARM - BURGLARY","ALARM - BURGLARY","************","",""
"11/15/2013","13:26","213CR0027378","WANTED PERSON","WANTED PERSON","************","",""
"11/15/2013","13:44","213CR0027379","ACCIDENT","ACCIDENT","HOLLAND AND MONTANA","",""
"11/15/2013","13:59","213CR0027380","MEDICAL - EMERGENCY","MEDICAL - EMERGENCY","1500 BLK ELM ST","",""
"11/15/2013","14:18","213CR0027381","SUSPICIOUS ACTIVITY","SUSPICIOUS ACTIVITY","LITTLE BASIN CREEK AND BEACON","",""
"11/15/2013","14:50","213CR0027382","HARASSMENT","HARASSMENT","1829 ADAMS AVE","",""
"11/15/2013","14:53","213CR0027383","T/S","T/S","HANCOCK AND BURLINGTON","",""
"11/15/2013","14:57","213CR0027384","T/S","T/S","HANCOCK AND BURLINGTON","",""
"11/15/2013","15:11","213CR0027385","WANTED PERSON","WANTED PERSON","************","",""
"11/15/2013","15:36","213CR0027386","WELFARE CHECK","WELFARE CHECK","1396 SUNSET RD","",""
"11/15/2013","15:41","213CR0027387","FRAUD","FRAUD","2020 JOHNS AVE","",""
"11/15/2013","15:51","213CR0027388","MEDICAL - ASSIST","MEDICAL - ASSIST","************","",""
"11/15/2013","16:18","213CR0027389","T/S","T/S","HARRISON AVE AND CORNELL ST","",""
"11/15/2013","16:51","213CR0027390","DISTURBANCE","DISTURBANCE","1108 FARRELL ST","",""
"11/15/2013","17:00","213CR0027391","CITIZEN AID","CITIZEN AID","225 N ALASKA","",""
"11/15/2013","17:01","213CR0027392","CIVIL STANDBY","CIVIL STANDBY","MONROE AND WALNUT","",""
"11/15/2013","17:34","213CR0027393","T/S","T/S @ BULLRANCH RD","BULLRANCH RD","",""
"11/15/2013","17:40","213CR0027394","T/S","T/S","300 BLK S ARIZONA","",""
"11/15/2013","17:50","213CR0027395","MEDICAL - EMERGENCY","MEDICAL - EMERGENCY","517 W GRANITE","",""
"11/15/2013","18:20","213CR0027396","SUSPICIOUS ACTIVITY","SUSPICIOUS ACTIVITY","2900 BLK ELIZABETH WARREN","",""
"11/15/2013","19:12","213CR0027397","HARASSMENT","HARASSMENT","225 N ALASKA ST","",""
"11/15/2013","19:20","213CR0027398","PARKING COMPLAINT","PARKING COMPLAINT","10 BLK N MAIN","",""
"11/15/2013","19:26","213CR0027399","DISTURBANCE","DISTURBANCE","4034 ELIZABETH WARREN","",""
"11/15/2013","19:54","213CR0027400","DISTURBANCE","POSSESSION OF DANGEROUS DRUGS","2645 AMHERST","ARREST(s) MADE",""
"11/15/2013","20:25","213CR0027401","CIVIL PAPER SERVICE","CIVIL PAPER SERVICE","3320 1/2 BUSCH","",""
"11/15/2013","20:28","213CR0027402","T/S","T/S","COBBAN ST AND GAYLORD ST","",""
"11/15/2013","21:46","213CR0027405","UNWANTED PERSON","UNWANTED PERSON","************","",""
"11/15/2013","21:48","213CR0027404","T/S","T/S","SILVER ST AND MAIN ST","",""
"11/15/2013","21:52","213CR0027406","SUSPICIOUS ACTIVITY","SUSPICIOUS ACTIVITY","2325 HARRISON AVE","",""
"11/15/2013","22:02","213CR0027407","T/S","T/S","WYOMING ST AND FRONT ST","",""
"11/15/2013","22:03","213CR0027408","THEFT","THEFT","6 E SECOND","",""
"11/15/2013","22:23","213CR0027409","ASSAULT","ASSAULT, SIMPLE","FROG POND RD","",""
"11/15/2013","22:29","213CR0027410","T/S","T/S","ARIZONA AND PARK","",""
"11/15/2013","22:32","213CR0027411","BUSINESS CHECK","BUSINESS CHECK","1915 DEWEY BLVD","",""
"11/15/2013","22:51","213CR0027412","T/S","T/S @ FIRST AND MAIN ST","FIRST AND MAIN ST","",""
"11/15/2013","22:52","213CR0027413","T/S","T/S","HARRISON AVE AND MARCIA ST","",""
"11/15/2013","22:58","213CR0027414","MEDICAL - EMERGENCY","MEDICAL - EMERGENCY","317 S EXCELSIOR","",""
"11/15/2013","23:27","213CR0027415","SUSPICIOUS ACTIVITY","SUSPICIOUS ACTIVITY","3900 BLK PAXSON ST","",""
"11/15/2013","23:29","213CR0027416","SUSPICIOUS ACTIVITY","SUSPICIOUS ACTIVITY","BUTTE COMMUNITY ICE RINK","",""
"11/15/2013","23:31","213CR0027417","INTOXICATED PERSON","INTOXICATED PERSON","1400 HARRISON","",""
"11/15/2013","23:32","213CR0027418","SUICIDE ATTEMPT/THREAT","SUICIDE ATTEMPT/THREAT","************","",""
"11/15/2013","23:44","213CR0027419","T/S","T/S","ROWE RD AND MONTANA","",""
"11/16/2013","00:29","213CR0027420","UNWANTED PERSON","UNWANTED PERSON","************","",""
"11/16/2013","00:33","213CR0027421","T/S","T/S","IDAHO ST AND GRANITE ST","",""
"11/16/2013","00:36","213CR0027422","ALARM - BURGLARY","ALARM - BURGLARY","************","",""
"11/16/2013","01:14","213CR0027423","BUSINESS CHECK","BUSINESS CHECK","2 E GALENA ZEPPIES","",""
"11/16/2013","01:33","213CR0027424","UNWANTED PERSON","UNWANTED PERSON","************","",""
"11/16/2013","01:35","213CR0027425","VANDALISM/CRIMINAL MISCHIEF","CRIMINAL MISCHIEF","20 S MONTANA ST","ARREST(s) MADE",""
"11/16/2013","01:36","213CR0027426","VANDALISM/CRIMINAL MISCHIEF","VANDALISM/CRIMINAL MISCHIEF","20 S MONTANA THE DUBLIN","",""
"11/16/2013","01:39","213CR0027427","DISTURBANCE","DISTURBANCE","2 E GALENA","",""
"11/16/2013","02:07","213CR0027428","SUSPICIOUS ACTIVITY","SUSPICIOUS ACTIVITY","700 BLK W PARK","",""
"11/16/2013","02:18","213CR0027429","T/S","T/S","BROADWAY AND IDAHO","",""
"11/16/2013","05:00","213CR0027430","T/S","T/S","MERCURY AND MAIN","",""
"11/16/2013","08:02","213CR0027431","THEFT","THEFT","2301 HARRISON AV","",""
"11/16/2013","08:51","213CR0027432","CITIZEN AID","CITIZEN AID","1532 ELM","",""
"11/16/2013","09:41","213CR0027433","T/S","T/S","DEWEY AND HILL","",""
"11/16/2013","10:08","213CR0027434","FIRE - OTHER","FIRE - OTHER","3250 HECLA","",""
"11/16/2013","10:54","213CR0027435","CITIZEN AID","CITIZEN AID","","",""
"11/16/2013","10:59","213CR0027436","T/S","T/S @ GERMAN GULCH RD","GERMAN GULCH RD","",""
"11/16/2013","11:13","213CR0027437","HARASSMENT","HARASSMENT","MEADOWLANDS APT 108","",""
"11/16/2013","11:20","213CR0027438","THEFT","THEFT, SHOPLIFT","712 E FRONT ST","",""
"11/16/2013","11:24","213CR0027439","THEFT","THEFT, ALL OTHERS","3605 HARRISON AVE","",""
"11/16/2013","12:06","213CR0027441","JUVENILE RUNAWAY","UNGOVERNABLE JUVENILE","3025 OTTAWA ST","ARREST(s) MADE",""
"11/16/2013","12:51","213CR0027442","TRAFFIC HAZARD","TRAFFIC HAZARD","MASSACHUSETTS AND YALE","",""
"11/16/2013","13:13","213CR0027443","T/S","T/S","2700 BLK GRAND AVE","",""
"11/16/2013","13:17","213CR0027444","ANIMAL COMPLAINT","ANIMAL COMPLAINT","1400 BLK S WARREN","",""
"11/16/2013","13:34","213CR0027445","MEDICAL - EMERGENCY","MEDICAL - EMERGENCY","1716 THORNTON AVE","",""
"11/16/2013","13:49","213CR0027446","ANIMAL COMPLAINT","ANIMAL COMPLAINT","MT HIGHLAND DR AND MILKY WY","",""
"11/16/2013","13:56","213CR0027447","THEFT","THEFT FROM MOTOR VEHICLE","1907 BEACON RD","",""
"11/16/2013","14:31","213CR0027448","CIVIL PAPER SERVICE","CIVIL PAPER SERVICE","665 1/2 S TRAVONIA","",""
"11/16/2013","14:33","213CR0027449","T/S","T/S","PARK AND IDAHO","",""
"11/16/2013","14:37","213CR0027450","T/S","T/S","HOLMES AND CARTER","",""
"11/16/2013","14:48","213CR0027451","T/S","T/S","HOLMES AND WESTERN","",""
"11/16/2013","14:57","213CR0027452","T/S","T/S","MAIN ST AND IOWA ST","",""
"11/16/2013","15:12","213CR0027453","ALL OTHER","ALL OTHER","216 S WASHINGTON","",""
"11/16/2013","15:26","213CR0027454","CIVIL PAPER SERVICE","CIVIL PAPER SERVICE","2221 WALNUT ST","",""
"11/16/2013","15:34","213CR0027455","WELFARE CHECK","WELFARE CHECK","FLYING J AND ROCKER TOWN PUMP","",""
"11/16/2013","16:04","213CR0027456","THEFT","THEFT","3409 PAXSON AVE","",""
"11/16/2013","16:19","213CR0027457","CIVIL PAPER SERVICE","CIVIL PAPER SERVICE","3320 1/2 BUSCH","",""
"11/16/2013","16:30","213CR0027458","JUVENILE MISC","JUVENILE MISC","************","",""
"11/16/2013","17:15","213CR0027459","T/S","T/S","ALABAMA AND PLATINUM","",""
"11/16/2013","17:36","213CR0027461","CIVIL PAPER SERVICE","CIVIL PAPER SERVICE","3320 1/2 BUSCH","",""
"11/16/2013","17:51","213CR0027462","HARASSMENT","HARASSMENT","132 GARDENS WAY","",""
"11/16/2013","18:01","213CR0027463","DISTURBANCE","DISTURBANCE","5101 S WARREN #11","",""
"11/16/2013","18:06","213CR0027464","HARASSMENT","HARASSMENT","4441 BULL RUN GULCH","",""
"11/16/2013","18:11","213CR0027465","BURGLARY","BURGLARY, RESIDENCE","3400 HILL AVE #1001","",""
"11/16/2013","18:11","213CR0027466","BURGLARY","BURGLARY, RESIDENCE","1102 EVANS AVE","",""
"11/16/2013","18:13","213CR0027467","ASSAULT","ASSAULT","************","",""
"11/16/2013","18:28","213CR0027468","ATL","ATL","I 15 MM 117 N BND","",""
"11/16/2013","19:04","213CR0027469","UNWANTED PERSON","UNWANTED PERSON","************","",""
"11/16/2013","19:34","213CR0027470","T/S","T/S @ FLEECER MTN","FLEECER MTN","",""
"11/16/2013","19:46","213CR0027471","ATL","ATL","CLARK AND MISSOULA","",""
"11/16/2013","19:54","213CR0027472","LED BUSINESS","LED BUSINESS","62 W BROADWAY","",""
"11/16/2013","20:05","213CR0027473","T/S","T/S","GOLD ST AND MONTANA ST","",""
"11/16/2013","20:52","213CR0027474","VANDALISM/CRIMINAL MISCHIEF","CRIMINAL MISCHIEF","308 E GRANITE ST","",""
"11/16/2013","21:20","213CR0027475","DISTURBANCE-NOISE","DISTURBANCE-NOISE","2825 FARRAGUT APT D105","",""
"11/16/2013","21:57","213CR0027477","ATL","ATL","3650 FAIRMONT RD","",""
"11/16/2013","22:07","213CR0027478","THEFT","THEFT FROM MOTOR VEHICLE","2016 HARRISON THE DERBY","",""
"11/16/2013","22:20","213CR0027479","T/S","T/S","PARK AND WASHINGTON","",""
"11/16/2013","22:24","213CR0027480","FIRE- GAS ODOR","FIRE- GAS ODOR","303 W QUARTZ #1","",""
"11/16/2013","22:31","213CR0027481","T/S","T/S","UTAH AND SECOND","",""
"11/16/2013","22:35","213CR0027482","INFORMATION ONLY","INFORMATION ONLY","3825 GREEN LANE #6","",""
"11/16/2013","22:42","213CR0027483","HARASSMENT","HARASSMENT","2100 PINE","",""
"11/16/2013","22:45","213CR0027484","T/S","T/S","PARK AND WYOMING","",""
"11/16/2013","22:47","213CR0027485","MEDICAL - EMERGENCY","MEDICAL - EMERGENCY","637 S COLORADO","",""
"11/16/2013","22:47","213CR0027486","T/S","T/S","900 BLK S MONTANA ST","",""
"11/16/2013","22:53","213CR0027487","T/S","T/S","920 S MONTANA/BUDGET MOTEL","",""
"11/16/2013","23:17","213CR0027488","DISTURBANCE-NOISE","DISTURBANCE-NOISE","1125 W GOLD","",""
"11/16/2013","23:31","213CR0027489","T/S","T/S","SECOND AND UTAH","",""
"11/16/2013","23:38","213CR0027490","T/S","NO LIABILITY INSURANCE IN EFF.","GRANITE AND MONTANA","",""
"11/16/2013","23:42","213CR0027491","CITIZEN AID","CITIZEN AID","118 COTTAGE LOOP","",""
"11/16/2013","23:45","213CR0027492","T/S","T/S","ALUMINUM AND MONTANA","",""
"11/16/2013","23:49","213CR0027493","T/S","DUI UNDER 21 BAC .02 GREATER","PARK AND MAIN","ARREST(s) MADE",""
"11/17/2013","00:17","213CR0027494","DISTURBANCE","DISTURBANCE","734 S MAIN","",""
"11/17/2013","00:21","213CR0027495","ALARM - BURGLARY","ALARM - BURGLARY","************","",""
"11/17/2013","00:43","213CR0027496","JUVENILE MISC","POSSESS ALCOHOL OR INTOXICANT","969 CRADDOCK RD","ARREST(s) MADE",""
"11/17/2013","01:45","213CR0027497","ALARM - BURGLARY","ALARM - BURGLARY","************","",""
"11/17/2013","02:01","213CR0027498","DISTURBANCE","DISTURBANCE","400 BLK W PARK","",""
"11/17/2013","02:57","213CR0027499","SUSPICIOUS ACTIVITY","SUSPICIOUS ACTIVITY","1100 BLK NEVADA","",""
"11/17/2013","03:07","213CR0027500","VANDALISM/CRIMINAL MISCHIEF","CRIMINAL MISCHIEF","9 N MAIN ST M // M","",""
"11/17/2013","03:19","213CR0027501","DISTURBANCE","DISTURBANCE","9 N MAIN M // M","",""
"11/17/2013","03:28","213CR0027502","HARASSMENT","HARASSMENT","10 BLK N MAIN","",""
"11/17/2013","03:47","213CR0027503","CITIZEN AID","CITIZEN AID","319 GALAXY DR","",""
"11/17/2013","04:38","213CR0027504","ALARM - BURGLARY","ALARM - BURGLARY","************","",""
"11/17/2013","05:02","213CR0027505","HIT AND RUN","HIT AND RUN","211 N MONTANA","",""
"11/17/2013","06:11","213CR0027506","MEDICAL - EMERGENCY","MEDICAL - EMERGENCY","2926 LOCUST","",""
"11/17/2013","08:51","213CR0027507","T/S","T/S","1600 BLK HARRISON AVE","",""
"11/17/2013","09:02","213CR0027508","VANDALISM/CRIMINAL MISCHIEF","CRIMINAL MISCHIEF","1226 FARRELL ST","",""
"11/17/2013","09:12","213CR0027509","VANDALISM/CRIMINAL MISCHIEF","CRIMINAL MISCHIEF","1224 FARRELL","",""
"11/17/2013","09:13","213CR0027510","VANDALISM/CRIMINAL MISCHIEF","CRIMINAL MISCHIEF","1218 FARRELL","",""
"11/17/2013","09:13","213CR0027511","VANDALISM/CRIMINAL MISCHIEF","VANDALISM/CRIMINAL MISCHIEF","1214 FARREL","",""
"11/17/2013","09:14","213CR0027512","VANDALISM/CRIMINAL MISCHIEF","CRIMINAL MISCHIEF","2032 ADAMS","",""
"11/17/2013","09:19","213CR0027513","VANDALISM/CRIMINAL MISCHIEF","CRIMINAL MISCHIEF","2030 ADAMS","",""
"11/17/2013","09:44","213CR0027514","CIVIL STANDBY","CIVIL STANDBY","1325 W QUARTZ #104","",""
"11/17/2013","11:02","213CR0027515","T/S","T/S","CONTINENTAL AND IRENE","",""
"11/17/2013","11:07","213CR0027516","FOUND PROPERTY","FOUND PROPERTY","************","",""
"11/17/2013","11:27","213CR0027517","THEFT","THEFT FROM MOTOR VEHICLE","223 S MONTANA","",""
"11/17/2013","11:28","213CR0027518","T/S","T/S","EXCELSIOR AND COPPER","",""
"11/17/2013","11:38","213CR0027519","THEFT","THEFT","2825 ELM","",""
"11/17/2013","12:24","213CR0027520","T/S","T/S","COLORADO AND PLATINUM","",""
"11/17/2013","12:38","213CR0027521","UNKNOWN PROBLEM","UNKNOWN PROBLEM","304 N MAIN","",""
"11/17/2013","12:50","213CR0027522","WELFARE CHECK","WELFARE CHECK","815 HIGHLAND AVE","",""
"11/17/2013","13:11","213CR0027523","T/S","T/S","MAIN AND DALY","",""
"11/17/2013","13:25","213CR0027524","DRUGS","DRUGS","************","",""
"11/17/2013","14:10","213CR0027525","ALARM - FIRE","ALARM - FIRE","25 PENNY LN APT A","",""
"11/17/2013","14:39","213CR0027526","BUSINESS CHECK","BUSINESS CHECK","1370 HARRISON AVE","",""
"11/17/2013","15:09","213CR0027527","DISTURBANCE","DISTURBANCE","1111 FARRELL ST","",""
"11/17/2013","15:10","213CR0027528","ALARM - BURGLARY","ALARM - BURGLARY","************","",""
"11/17/2013","15:21","213CR0027529","ALARM - MEDICAL","ALARM - MEDICAL","************","",""
"11/17/2013","15:51","213CR0027530","VANDALISM/CRIMINAL MISCHIEF","CRIMINAL MISCHIEF","512 SEVEN SPRINGS RD","",""
"11/17/2013","16:03","213CR0027531","MEDICAL - EMERGENCY","MEDICAL - EMERGENCY","229 ASPEN LOOP","",""
"11/17/2013","16:28","213CR0027532","BURGLARY","THEFT FROM BUILDINGS","910 W GALENA ST","",""
"11/17/2013","17:31","213CR0027533","WANTED PERSON","WANTED PERSON","************","",""
"11/17/2013","18:19","213CR0027534","MEDICAL - EMERGENCY","MEDICAL - EMERGENCY","1204 SILVER BOW HOMES","",""
"11/17/2013","18:45","213CR0027535","SUICIDE ATTEMPT/THREAT","SUICIDE ATTEMPT/THREAT","************","",""
"11/17/2013","18:47","213CR0027536","ALARM - BURGLARY","ALARM - BURGLARY","************","",""
"11/17/2013","18:55","213CR0027537","ATL","ATL","848 W PARK ST","",""
"11/17/2013","19:00","213CR0027538","SUICIDE ATTEMPT/THREAT","SUICIDE ATTEMPT/THREAT","************","",""
"11/17/2013","19:05","213CR0027539","THEFT","CRIMINAL MISCHIEF","2016 HARRISON AVE","",""
"11/17/2013","19:14","213CR0027540","THEFT","THEFT FROM MOTOR VEHICLE","2101 HARRISON AVE","",""
"11/17/2013","19:25","213CR0027541","SUSPICIOUS ACTIVITY","SUSPICIOUS ACTIVITY","308 ASPEN WY","",""
"11/17/2013","19:39","213CR0027542","BUSINESS CHECK","BUSINESS CHECK","1370 HARRISON AVE","",""
"11/17/2013","20:44","213CR0027543","T/S","T/S","PORTER AVE // BAYARD ST","",""
"11/17/2013","20:47","213CR0027544","WELFARE CHECK","WELFARE CHECK","1718 DELAWARE AVE","",""
"11/17/2013","21:12","213CR0027545","MEDICAL - EMERGENCY","MEDICAL - EMERGENCY","1922 MASSACHUSETTS AVE","",""
"11/17/2013","22:15","213CR0027546","UNWANTED PERSON","UNWANTED PERSON","************","",""
"11/17/2013","22:24","213CR0027547","UNWANTED PERSON","UNWANTED PERSON","************","",""
"11/17/2013","22:44","213CR0027548","BUSINESS CHECK","BUSINESS CHECK","2711 HARRISON AVE","",""
"11/17/2013","22:51","213CR0027549","T/S","T/S @ PAXSON ST AND ELIZABETH WARREN","PAXSON ST AND ELIZABETH WARREN","",""
"11/17/2013","22:52","213CR0027550","DISTURBANCE-NOISE","DISTURBANCE-NOISE","3000 BLK DEXTER","",""
"11/17/2013","23:00","213CR0027551","ANIMAL COMPLAINT","ANIMAL COMPLAINT","4385 S ARIZONA ST","",""
"11/17/2013","23:22","213CR0027552","DISTURBANCE-NOISE","DISTURBANCE-NOISE","3012 DEXTER ST","",""
"11/17/2013","23:23","213CR0027553","BUSINESS CHECK","BUSINESS CHECK","1370 HARRISON AVE","",""
"11/17/2013","23:43","213CR0027554","CITIZEN AID","CITIZEN AID","FRONT ST AND MAIN ST","",""
"11/17/2013","23:56","213CR0027555","T/S","DRIVE WHILE SUSP. OR REVOKED","MONTANA ST AND GOLD ST","ARREST(s) MADE",""
"11/18/2013","00:03","213CR0027556","BUSINESS CHECK","BUSINESS CHECK","531 S MONTANA ST","",""
"11/18/2013","00:27","213CR0027557","UNKNOWN PROBLEM","UNKNOWN PROBLEM","112 N MAIN ST","",""
"11/18/2013","01:11","213CR0027558","MEDICAL - EMERGENCY","MEDICAL - EMERGENCY","1333 S UTAH AVE","",""
"11/18/2013","05:10","213CR0027559","CIVIL STANDBY","CIVIL STANDBY","","",""
"11/18/2013","06:24","213CR0027560","SUSPICIOUS ACTIVITY","SUSPICIOUS ACTIVITY","122040 NISSLER RD","",""
"11/18/2013","06:27","213CR0027561","MEDICAL - EMERGENCY","MEDICAL - EMERGENCY","3136 SANDERS","",""

BSB police log ending Nov. 15, 2013

"11/14/2013","01:35","213CR0027270","DISTURBANCE","ASSAULT, SIMPLE","1800 MEADOWLARK","ARREST(s) MADE",""
"11/14/2013","02:47","213CR0027271","MEDICAL - EMERGENCY","MEDICAL - EMERGENCY","1922 MASSACHUSETTS","",""
"11/14/2013","04:53","213CR0027272","ALARM - BURGLARY","ALARM - BURGLARY","************","",""
"11/14/2013","05:40","213CR0027273","MEDICAL - EMERGENCY","MEDICAL - EMERGENCY","100 ASPEN WAY #D","",""
"11/14/2013","07:03","213CR0027274","ALL OTHER","ALL OTHER","658 S JACKSON","",""
"11/14/2013","07:31","213CR0027275","SUSPICIOUS ACTIVITY","SUSPICIOUS ACTIVITY","9 N MAIN ST","",""
"11/14/2013","08:10","213CR0027276","LED BUSINESS","LED BUSINESS","155 W GRANITE ST","",""
"11/14/2013","08:23","213CR0027277","THEFT","THEFT","967 HIGHWAY 2 W","",""
"11/14/2013","08:40","213CR0027278","DETENTION BUSINESS","DETENTION BUSINESS","************","",""
"11/14/2013","08:54","213CR0027279","HIT AND RUN","HIT AND RUN, UNATTENDED VEHICL","24 E BROADWAY","",""
"11/14/2013","09:07","213CR0027280","DISORDERLY CONDUCT","DISORDERLY CONDUCT","2600 GRAND AVE","",""
"11/14/2013","09:19","213CR0027281","CIVIL STANDBY","CIVIL STANDBY","3521 S WARREN","",""
"11/14/2013","09:21","213CR0027282","CRIMINAL TRESPASS","CRIMINAL TRESPASS","5101 S WARREN AVE #11","",""
"11/14/2013","09:23","213CR0027283","THEFT","THEFT","112 S JACKSON","",""
"11/14/2013","09:36","213CR0027284","DETENTION BUSINESS","DETENTION BUSINESS","************","",""
"11/14/2013","09:46","213CR0027285","CRIMINAL TRESPASS","CRIMINAL TRESPASS","1814 MASSACHUSETTS","",""
"11/14/2013","10:14","213CR0027286","T/S","T/S","HARRISON AVE AND C ST","",""
"11/14/2013","10:27","213CR0027287","T/S","T/S","IDAHO ST AND MERCURY ST","",""
"11/14/2013","10:32","213CR0027288","PARKING COMPLAINT","PARKING COMPLAINT","501 E FRONT ST","",""
"11/14/2013","10:35","213CR0027289","T/S","T/S","ROWE RD AND LEXINGTON AVE","",""
"11/14/2013","10:48","213CR0027290","THEFT","THEFT, PURSE SNATCH","2741 PLACER ST","",""
"11/14/2013","10:51","213CR0027291","T/S","T/S","MAIN AND 2ND","",""
"11/14/2013","10:54","213CR0027292","SUSPICIOUS ACTIVITY","AGGRAVATED DUI","BROADWAY AND IDAHO","ARREST(s) MADE",""
"11/14/2013","11:00","213CR0027293","RESTRAINING ORDER VIOLATION","RESTRAINING ORDER VIOLATION","************","",""
"11/14/2013","11:00","213CR0027294","HARASSMENT","HARASSMENT","721 MARYLAND AVE","",""
"11/14/2013","11:07","213CR0027295","JUVENILE MISC","JUVENILE MISC","************","",""
"11/14/2013","11:20","213CR0027296","FIRE - OTHER","FIRE - OTHER","1131 MISSOURI","",""
"11/14/2013","11:30","213CR0027297","DISTURBANCE","DISTURBANCE","401 S WYOMING","",""
"11/14/2013","12:28","213CR0027298","WANTED PERSON","WANTED PERSON","************","",""
"11/14/2013","12:46","213CR0027299","MEDICAL - EMERGENCY","MEDICAL - EMERGENCY","2201 SILVER BOW BLVD","",""
"11/14/2013","12:47","213CR0027300","T/S","T/S @ ","","",""
"11/14/2013","13:45","213CR0027301","DISORDERLY CONDUCT","DISORDERLY CONDUCT","401 S WYOMING","",""
"11/14/2013","13:57","213CR0027302","ALARM - BURGLARY","ALARM - BURGLARY","************","",""
"11/14/2013","13:59","213CR0027303","MEDICAL - EMERGENCY","MEDICAL - EMERGENCY","2777 HARRISON AVE","",""
"11/14/2013","14:15","213CR0027304","SUSPICIOUS ACTIVITY","SUSPICIOUS ACTIVITY","1317 HARRISON AVE","",""
"11/14/2013","14:19","213CR0027305","JUVENILE MISC","JUVENILE MISC","************","",""
"11/14/2013","14:37","213CR0027306","T/S","T/S @ HWY 2 MM 84","HWY 2 MM 84","",""
"11/14/2013","14:52","213CR0027307","FRAUD","FRAUD","3400 HILL AVE #403","",""
"11/14/2013","14:55","213CR0027308","HARASSMENT","HARASSMENT","611 N JACKSON ST","",""
"11/14/2013","14:57","213CR0027309","ACCIDENT-MHP","ACCIDENT-MHP","I 90 MM 227 W BND","",""
"11/14/2013","15:07","213CR0027310","DETENTION BUSINESS","DETENTION BUSINESS","************","",""
"11/14/2013","15:10","213CR0027311","PARKING COMPLAINT","PARKING COMPLAINT","629 W IRON ST","",""
"11/14/2013","15:27","213CR0027312","ATL","ATL","FLORNECE // ARGYLE","",""
"11/14/2013","15:43","213CR0027313","SUSPICIOUS ACTIVITY","SUSPICIOUS ACTIVITY","1000 S ARIZONA/HEAD START","",""
"11/14/2013","15:59","213CR0027314","JUVENILE MISC","JUVENILE MISC","************","",""
"11/14/2013","16:01","213CR0027315","THEFT","THEFT, SHOPLIFT","1925 DEWEY BLVD","ARREST(s) MADE",""
"11/14/2013","16:14","213CR0027316","ACCIDENT- INJURY(MHP)","ACCIDENT- INJURY(MHP)","I90 EXIT 216 WB","",""
"11/14/2013","16:29","213CR0027317","CIVIL STANDBY","CIVIL STANDBY","2016 HARRISON AVE","",""
"11/14/2013","16:33","213CR0027318","FIRE - STRUCTURE","FIRE - STRUCTURE","3010 MOULTON","",""
"11/14/2013","16:43","213CR0027319","LED BUSINESS","LED BUSINESS","","",""
"11/14/2013","16:45","213CR0027320","SUICIDE ATTEMPT/THREAT","SUICIDE ATTEMPT/THREAT","************","",""
"11/14/2013","17:00","213CR0027321","UNWANTED PERSON","UNWANTED PERSON","************","",""
"11/14/2013","17:01","213CR0027322","CIVIL STANDBY","CIVIL STANDBY","1620 N MAIN ST","",""
"11/14/2013","17:02","213CR0027323","THEFT","THEFT, SHOPLIFT","3100 HARRISON MOSES FOR MEN","",""
"11/14/2013","17:09","213CR0027324","WELFARE CHECK","WELFARE CHECK","522 N WYOMING","",""
"11/14/2013","17:19","213CR0027325","THEFT","THEFT","CLARK AND ALABAMA ST","",""
"11/14/2013","17:23","213CR0027326","MEDICAL - EMERGENCY","MEDICAL - EMERGENCY","303 W QUARTZ","",""
"11/14/2013","17:24","213CR0027327","FIRE - OTHER","FIRE - OTHER","4431 BULLRUN GULCH RD","",""
"11/14/2013","17:29","213CR0027328","SUSPICIOUS ACTIVITY","SUSPICIOUS ACTIVITY","PLATINUM AND MONTANA","",""
"11/14/2013","17:32","213CR0027329","ACCIDENT","ACCIDENT","JC PENNEYS 3100 HARRISON","",""
"11/14/2013","17:57","213CR0027330","DISTURBANCE","DISTURBANCE","533 S IDAHO","",""
"11/14/2013","18:20","213CR0027331","T/S","T/S","2905 HARRISON AVE","",""
"11/14/2013","18:23","213CR0027332","ALL OTHER","ALL OTHER","152 SHORTY WAY","",""
"11/14/2013","18:24","213CR0027333","INFORMATION ONLY","INFORMATION ONLY","2720 PHILLIPS ST","",""
"11/14/2013","18:38","213CR0027334","UNWANTED PERSON","UNWANTED PERSON","************","",""
"11/14/2013","18:50","213CR0027335","MEDICAL - EMERGENCY","MEDICAL - EMERGENCY","FRONT ST AND CALIFORNIA ST","",""
"11/14/2013","19:34","213CR0027336","WELFARE CHECK","WELFARE CHECK","110 CLINTON AVE","",""
"11/14/2013","20:04","213CR0027337","THEFT","THEFT, SHOPLIFT","531 S MONTANA ST","ARREST(s) MADE",""
"11/14/2013","20:17","213CR0027338","SUSPICIOUS ACTIVITY","SUSPICIOUS ACTIVITY","500 BLK S MONTANA","",""
"11/14/2013","20:59","213CR0027339","DISTURBANCE","DISTURBANCE","501 W GRANITE","",""
"11/14/2013","21:06","213CR0027340","FIRE - OTHER","FIRE - OTHER","4431 BULL RUN GULCH","",""
"11/14/2013","21:46","213CR0027341","ALARM - MEDICAL","ALARM - MEDICAL","************","",""
"11/14/2013","22:13","213CR0027342","WELFARE CHECK","WELFARE CHECK","303 W QUARTZ #1","",""
"11/14/2013","22:42","213CR0027343","SUSPICIOUS ACTIVITY","SUSPICIOUS ACTIVITY","647 TRAVONIA","",""
"11/14/2013","22:56","213CR0027344","T/S","T/S @ CLARK AND IRON","CLARK AND IRON","",""
"11/15/2013","00:25","213CR0027345","UNWANTED PERSON","UNWANTED PERSON","************","",""
"11/15/2013","01:08","213CR0027346","T/S","T/S @ I15 MM 126 NB","I15 MM 126 NB","",""
"11/15/2013","01:46","213CR0027347","SUSPICIOUS ACTIVITY","SUSPICIOUS ACTIVITY","I15 MM 127 NB","",""
"11/15/2013","01:49","213CR0027348","MEDICAL - EMERGENCY","MEDICAL - EMERGENCY","3434 SANDERS","",""
"11/15/2013","03:08","213CR0027349","SUSPICIOUS ACTIVITY","SUSPICIOUS ACTIVITY","2900 HARRSION/BUTTE PLAZA INN","",""
"11/15/2013","03:10","213CR0027350","PROWLER","PROWLER","735 HORNET ST","",""
"11/15/2013","03:49","213CR0027351","SUSPICIOUS ACTIVITY","SUSPICIOUS ACTIVITY","FRONT AND HARRISON","",""
"11/15/2013","03:53","213CR0027352","ATL","ATL","2305 CONTINENTAL DR TOWN PUMP","",""
"11/15/2013","04:23","213CR0027353","ATL","ATL","3901 HARRISON AVE","",""
"11/15/2013","05:04","213CR0027354","SUSPICIOUS ACTIVITY","SUSPICIOUS ACTIVITY","PARK AND MAIN","",""
"11/15/2013","05:23","213CR0027355","FIRE - OTHER","FIRE - OTHER","I90 MM 231 EB","",""
"11/15/2013","07:09","213CR0027357","ALARM - BURGLARY","ALARM - BURGLARY","************","",""
"11/15/2013","07:16","213CR0027358","ALARM - BURGLARY","ALARM - BURGLARY","************","",""

Subcategories

Tuesday the 25th. Affiliate Marketing.
Copyright 2012

©